Station EFLA1 - 8734536 - E Range Front Light Visibility, AL Image indicating link to RSS feed of recent meteorological observations for station EFLA1


Conditions at EFLA1 as of
(5:30 pm CDT)
2230 GMT on 04/17/2024:
     

Click on the graph icon in the table below to see a time series plot of the last five days of that observation.

5-day plot - Air Temperature Air Temperature (ATMP): 73.0 °F
5-day plot - Dew Point Dew Point (DEWP): 72.5 °F
5-day plot - Visibility Visibility (VIS): 5.9 nmi
NOS Water Level Observation Network Water Level
Previous observations
TIME
(CDT)
5-day plot - Wind Direction
WDIR
 
5-day plot - Wind Speed
WSPD
kts
5-day plot - Wind Gust
GST
kts
5-day plot - Wave Height
WVHT
ft
5-day plot - Dominant Wave Period
DPD
sec
5-day plot - Average Wave Period
APD
sec
5-day plot - Mean Wave Direction
MWD
 
5-day plot - Atmospheric Pressure
PRES
in
5-day plot - Pressure Tendency
PTDY
in
5-day plot - Air Temperature
ATMP
°F
5-day plot - Water Temperature
WTMP
°F
5-day plot - Dew Point
DEWP
°F
5-day plot - Salinity
SAL
psu
5-day plot - Visibility
VIS
nmi
5-day plot - Tide (above MLLW)
TIDE
ft
2024-04-17 05:24 pm--------- 73.2- 72.9- 5.9-
2024-04-17 05:18 pm--------- 73.2- 72.9- 5.9-
2024-04-17 05:12 pm--------- 73.2- 72.7- 5.9-
2024-04-17 05:06 pm--------- 73.2- 72.7- 5.9-
2024-04-17 04:48 pm--------- 73.2- 72.5- 5.9-
2024-04-17 04:42 pm--------- 73.2- 72.3- 5.9-
2024-04-17 04:36 pm--------- 73.2- 72.5- 5.9-
2024-04-17 04:30 pm--------- 73.2- 72.5- 5.9-
2024-04-17 04:24 pm--------- 73.0- 72.5- 5.9-
2024-04-17 04:18 pm--------- 73.0- 72.5- 5.9-
2024-04-17 04:12 pm--------- 73.0- 72.5- 5.9-
2024-04-17 04:06 pm--------- 73.0- 72.5- 5.9-
2024-04-17 04:00 pm--------- 73.2- 72.3- 5.9-
2024-04-17 03:54 pm--------- 73.2- 72.5- 5.9-
2024-04-17 03:48 pm--------- 73.2- 72.3- 4.9-
2024-04-17 03:42 pm--------- 73.2- 72.3- 5.9-
2024-04-17 03:36 pm--------- 73.4- 72.5- 4.9-
2024-04-17 03:30 pm--------- 73.2- 72.3- 4.9-
2024-04-17 03:24 pm--------- 73.2- 72.1- 5.9-
2024-04-17 03:18 pm--------- 73.2- 72.3- 5.9-
2024-04-17 03:12 pm--------- 73.4- 72.1- 5.9-
2024-04-17 03:06 pm--------- 73.4- 72.0- 5.9-
2024-04-17 03:00 pm--------- 73.4- 72.3- 5.9-
2024-04-17 02:54 pm--------- 73.4- 72.5- 5.9-
2024-04-17 02:48 pm--------- 73.4- 72.5- 5.9-
2024-04-17 02:42 pm--------- 73.4- 72.5- 5.9-
2024-04-17 02:36 pm--------- 73.2- 72.1- 5.9-
2024-04-17 02:30 pm--------- 73.2- 72.3- 5.9-
2024-04-17 02:24 pm--------- 73.0- 72.1- 5.9-
2024-04-17 02:18 pm--------- 73.4- 72.5- 4.9-
2024-04-17 02:12 pm--------- 73.2- 72.0- 4.9-
2024-04-17 02:06 pm--------- 73.4- 72.0- 4.9-
2024-04-17 02:00 pm--------- 73.4- 72.0- 3.2-
2024-04-17 01:54 pm--------- 73.6- 72.3- 5.9-
2024-04-17 01:48 pm--------- 73.4- 71.8- 5.9-
2024-04-17 01:42 pm--------- 73.6- 72.0- 5.9-
2024-04-17 01:36 pm--------- 73.4- 72.0- 5.9-
2024-04-17 01:30 pm--------- 73.2- 72.3- 5.9-
2024-04-17 01:24 pm--------- 73.2- 72.3- 5.9-
2024-04-17 01:18 pm--------- 73.2- 72.0- 5.9-
2024-04-17 01:12 pm--------- 73.2- 72.0- 5.9-
2024-04-17 01:06 pm--------- 73.2- 71.8- 5.9-
2024-04-17 01:00 pm--------- 73.2- 71.8- 5.9-
2024-04-17 12:54 pm--------- 73.0- 71.8- 5.9-
2024-04-17 12:48 pm--------- 73.0- 71.8- 5.9-
2024-04-17 12:42 pm--------- 73.0- 71.8- 5.9-
2024-04-17 12:36 pm--------- 73.0- 71.8- 5.9-
2024-04-17 12:30 pm--------- 73.0- 72.0- 5.9-
2024-04-17 12:24 pm--------- 72.9- 72.0- 4.9-
2024-04-17 12:18 pm--------- 72.9- 71.8- 4.3-
2024-04-17 12:12 pm--------- 72.7- 71.8- 3.2-
2024-04-17 12:06 pm--------- 72.9- 72.0- 4.3-
2024-04-17 12:00 pm--------- 72.7- 71.8- 3.2-
2024-04-17 11:54 am--------- 72.5- 71.8- 4.3-
2024-04-17 11:48 am--------- 72.7- 71.8- 4.9-
2024-04-17 11:42 am--------- 72.7- 71.8- 5.9-
2024-04-17 11:36 am--------- 72.5- 71.8- 5.9-
2024-04-17 11:30 am--------- 72.3- 71.6- 5.9-
2024-04-17 11:24 am--------- 72.3- 71.6- 5.9-
2024-04-17 11:18 am--------- 72.5- 71.6- 5.9-
2024-04-17 11:12 am--------- 72.3- 71.4- 5.9-
2024-04-17 11:06 am--------- 72.3- 71.6- 5.9-
2024-04-17 11:00 am--------- 72.1- 71.4- 5.9-
2024-04-17 10:54 am--------- 72.5- 71.6- 5.9-
2024-04-17 10:48 am--------- 72.3- 71.4- 5.9-
2024-04-17 10:42 am--------- 72.1- 71.4- 5.9-
2024-04-17 10:36 am--------- 72.1- 71.4- 5.9-
2024-04-17 10:30 am--------- 72.1- 71.2- 5.9-
2024-04-17 10:24 am--------- 72.3- 71.2- 5.9-
2024-04-17 10:18 am--------- 72.3- 71.2- 5.9-
2024-04-17 10:12 am--------- 72.5- 71.1- 5.9-
2024-04-17 10:06 am--------- 72.3- 71.2- 5.9-
2024-04-17 10:00 am--------- 72.3- 71.4- 5.9-
2024-04-17 09:54 am--------- 72.1- 71.2- 5.9-
2024-04-17 09:48 am--------- 72.1- 71.2- 5.9-
2024-04-17 09:42 am--------- 72.0- 70.9- 5.9-
2024-04-17 09:36 am--------- 71.8- 71.4- 5.9-
2024-04-17 09:30 am--------- 71.6- 71.2- 5.9-
2024-04-17 09:24 am--------- 71.6- 71.2- 5.9-
2024-04-17 09:18 am--------- 71.6- 71.2- 5.9-
2024-04-17 09:12 am--------- 71.6- 71.2- 2.6-
2024-04-17 09:06 am--------- 71.4- 71.1- 5.9-
2024-04-17 09:00 am--------- 71.6- 71.2- 5.9-
2024-04-17 08:54 am--------- 71.2- 71.1- 5.9-
2024-04-17 08:48 am--------- 71.2- 71.2- 5.9-
2024-04-17 08:42 am--------- 70.9- 70.9- 4.3-
2024-04-17 08:36 am--------- 70.9- 70.9- 5.9-
2024-04-17 08:30 am--------- 71.1- 71.1- 5.9-
2024-04-17 08:24 am--------- 71.2- 71.2- 3.2-
2024-04-17 08:18 am--------- 71.2- 71.1- 3.2-
2024-04-17 08:12 am--------- 71.2- 71.2- 4.9-
2024-04-17 08:06 am--------- 70.9- 70.9- 3.2-
2024-04-17 08:00 am--------- 70.5- 70.5- 5.9-
2024-04-17 07:54 am--------- 70.5- 70.5- 5.9-
2024-04-17 07:48 am--------- 70.3- 70.3- 4.9-
2024-04-17 07:42 am--------- 70.5- 70.5- 5.9-
2024-04-17 07:36 am--------- 70.7- 70.7- 5.9-
2024-04-17 07:30 am--------- 70.7- 70.7- 5.9-
2024-04-17 07:24 am--------- 70.3- 70.3- 5.9-
2024-04-17 07:18 am--------- 70.2- 70.2- 5.9-
2024-04-17 07:12 am--------- 70.7- 70.7- 5.9-
2024-04-17 07:06 am--------- 70.9- 70.9- 5.9-
2024-04-17 07:00 am--------- 71.2- 71.1- 5.9-
2024-04-17 06:54 am--------- 71.8- 70.9- 5.9-
2024-04-17 06:48 am--------- 71.8- 70.5- 2.2-
2024-04-17 06:42 am--------- 71.6- 70.3- 4.3-
2024-04-17 06:36 am--------- 71.8- 70.5- 5.9-
2024-04-17 06:30 am--------- 71.6- 70.5- 5.9-
2024-04-17 06:24 am--------- 71.8- 70.9- 5.9-
2024-04-17 06:18 am--------- 71.6- 70.5- 5.9-
2024-04-17 06:12 am--------- 71.8- 70.9- 5.9-
2024-04-17 06:06 am--------- 71.6- 70.5- 5.9-
2024-04-17 06:00 am--------- 71.6- 70.5- 5.9-
2024-04-17 05:54 am--------- 71.6- 70.5- 5.9-
2024-04-17 05:48 am--------- 71.8- 70.7- 5.9-
2024-04-17 05:42 am--------- 71.8- 70.3- 4.9-
2024-04-17 05:36 am--------- 71.8- 70.5- 5.9-
2024-04-17 05:30 am--------- 71.6- 70.2- 5.9-
2024-04-17 05:24 am--------- 71.6- 70.5- 5.9-
2024-04-17 05:18 am--------- 71.8- 70.7- 5.9-
2024-04-17 05:12 am--------- 71.8- 70.3- 5.9-
2024-04-17 05:06 am--------- 71.8- 70.5- 5.9-
2024-04-17 05:00 am--------- 71.6- 70.3- 5.9-
2024-04-17 04:54 am--------- 71.8- 70.7- 5.9-
2024-04-17 04:48 am--------- 71.6- 70.3- 5.9-
2024-04-17 04:42 am--------- 71.6- 70.3- 5.9-
2024-04-17 04:36 am--------- 71.8- 70.5- 5.9-
2024-04-17 04:30 am--------- 71.6- 70.3- 5.9-
2024-04-17 04:24 am--------- 71.8- 70.5- 5.9-
2024-04-17 04:18 am--------- 71.8- 70.3- 5.9-
2024-04-17 04:12 am--------- 71.6- 70.2- 5.9-
2024-04-17 04:06 am--------- 71.6- 70.5- 5.9-
2024-04-17 04:00 am--------- 71.6- 70.2- 5.9-
2024-04-17 03:54 am--------- 71.8- 70.7- 4.3-
2024-04-17 03:48 am--------- 71.6- 70.5- 5.9-
2024-04-17 03:42 am--------- 71.8- 70.7- 5.9-
2024-04-17 03:36 am--------- 71.6- 70.5- 4.3-
2024-04-17 03:30 am--------- 71.6- 70.7- 5.9-
2024-04-17 03:24 am--------- 71.6- 70.7- 0.3-
2024-04-17 03:18 am--------- 71.6- 70.9- 4.3-
2024-04-17 03:12 am--------- 71.6- 70.9- 4.3-
2024-04-17 03:06 am--------- 71.4- 70.9- 5.9-
2024-04-17 03:00 am--------- 71.6- 71.1- 4.9-
2024-04-17 02:54 am--------- 71.4- 70.9- 5.9-
2024-04-17 02:48 am--------- 71.4- 71.1- 3.2-
2024-04-17 02:42 am--------- 71.4- 71.2- 5.9-
2024-04-17 02:36 am--------- 71.4- 71.2- 2.6-
2024-04-17 02:30 am--------- 71.4- 71.2- 4.9-
2024-04-17 02:24 am--------- 71.4- 71.2- 4.9-
2024-04-17 02:18 am--------- 71.4- 71.4- 1.1-
2024-04-17 02:12 am--------- 71.4- 71.2- 1.0-
2024-04-17 02:06 am--------- 71.4- 71.2- 1.2-
2024-04-17 02:00 am--------- 71.2- 71.1- 0.9-
2024-04-17 01:54 am--------- 71.4- 71.2- 4.3-
2024-04-17 01:48 am--------- 71.4- 71.2- 5.9-
2024-04-17 01:42 am--------- 71.4- 71.2- 4.3-
2024-04-17 01:36 am--------- 71.4- 71.2- 0.5-
2024-04-17 01:30 am--------- 71.6- 71.6- 4.9-
2024-04-17 01:24 am--------- 71.6- 71.6- 5.9-
2024-04-17 01:18 am--------- 71.4- 71.4- 5.9-
2024-04-17 01:12 am--------- 71.6- 71.6- 5.9-
2024-04-17 01:06 am--------- 71.4- 71.4- 5.9-
2024-04-17 01:00 am--------- 71.4- 71.4- 5.9-
2024-04-17 12:54 am--------- 71.4- 71.4- 0.9-
2024-04-17 12:48 am--------- 71.6- 71.6- 3.2-
2024-04-17 12:42 am--------- 71.4- 71.4- 4.9-
2024-04-17 12:36 am--------- 71.4- 71.4- 3.2-
2024-04-17 12:30 am--------- 71.4- 71.4- 1.9-
2024-04-17 12:24 am--------- 71.6- 71.6- 1.3-
2024-04-17 12:18 am--------- 71.6- 71.6- 1.9-
2024-04-17 12:12 am--------- 71.6- 71.6- 1.0-
2024-04-17 12:06 am--------- 71.6- 71.6- 1.0-
2024-04-17 12:00 am--------- 71.6- 71.6- 1.9-
2024-04-16 11:54 pm--------- 71.6- 71.6- 1.0-
2024-04-16 11:48 pm--------- 71.6- 71.6- 0.5-
2024-04-16 11:42 pm--------- 71.6- 71.6- 0.2-
2024-04-16 11:36 pm--------- 71.8- 71.8- 3.2-
2024-04-16 11:30 pm--------- 71.6- 71.6- 3.2-
2024-04-16 11:24 pm--------- 71.6- 71.6- 2.4-
2024-04-16 11:18 pm--------- 71.6- 71.6- 1.2-
2024-04-16 11:12 pm--------- 71.8- 71.8- 1.2-
2024-04-16 11:06 pm--------- 71.8- 71.8- 0.9-
2024-04-16 11:00 pm--------- 71.8- 71.8- 1.1-
2024-04-16 10:54 pm--------- 71.8- 71.8- 0.3-
2024-04-16 10:48 pm--------- 71.8- 71.8- 4.3-
2024-04-16 10:42 pm--------- 71.8- 71.8- 5.9-
2024-04-16 10:36 pm--------- 71.8- 71.8- 2.6-
2024-04-16 10:30 pm--------- 71.8- 71.8- 0.3-
2024-04-16 10:24 pm--------- 71.8- 71.8- 3.2-
2024-04-16 10:18 pm--------- 71.8- 71.8- 4.3-
2024-04-16 10:12 pm--------- 71.8- 71.8- 4.9-
2024-04-16 10:06 pm--------- 71.8- 71.8- 3.2-
2024-04-16 10:00 pm--------- 72.0- 72.0- 2.6-
2024-04-16 09:54 pm--------- 71.8- 71.6- 5.9-
2024-04-16 09:48 pm--------- 72.0- 72.0- 0.9-
2024-04-16 09:42 pm--------- 71.8- 71.8- 0.2-
2024-04-16 09:36 pm--------- 71.8- 71.6- 4.3-
2024-04-16 09:30 pm--------- 71.8- 71.6- 4.9-
2024-04-16 09:24 pm--------- 71.8- 71.6- 2.6-
2024-04-16 09:18 pm--------- 71.8- 71.6- 5.9-
2024-04-16 09:12 pm--------- 72.0- 71.8- 2.4-
2024-04-16 09:06 pm--------- 72.0- 71.8- 0.4-
2024-04-16 09:00 pm--------- 72.0- 71.6- 4.3-
2024-04-16 08:54 pm--------- 71.8- 71.2- 3.2-
2024-04-16 08:48 pm--------- 71.8- 71.2- 5.9-
2024-04-16 08:42 pm--------- 71.8- 71.1- 5.9-
2024-04-16 08:36 pm--------- 71.8- 71.1- 5.9-
2024-04-16 08:30 pm--------- 71.8- 70.9- 5.9-
2024-04-16 08:24 pm--------- 71.8- 70.9- 5.9-
2024-04-16 08:18 pm--------- 71.8- 70.7- 5.9-
2024-04-16 08:12 pm--------- 72.0- 71.1- 2.4-
2024-04-16 08:06 pm--------- 72.0- 70.7- 5.9-
2024-04-16 08:00 pm--------- 72.0- 70.7- 5.9-
2024-04-16 07:54 pm--------- 72.0- 70.7- 4.9-
2024-04-16 07:48 pm--------- 72.0- 70.5- 5.9-
2024-04-16 07:42 pm--------- 72.0- 70.3- 0.4-
2024-04-16 07:36 pm--------- 72.1- 70.5- 2.2-
2024-04-16 07:30 pm--------- 72.1- 70.3- 2.4-
2024-04-16 07:24 pm--------- 72.1- 70.3- 3.2-
2024-04-16 07:18 pm--------- 72.3- 70.5- 3.2-
2024-04-16 07:12 pm--------- 72.3- 70.5- 4.3-
2024-04-16 07:06 pm--------- 72.1- 69.8- 5.9-
2024-04-16 07:00 pm--------- 72.3- 70.2- 2.4-
2024-04-16 06:54 pm--------- 72.3- 70.0- 5.9-
2024-04-16 06:48 pm--------- 72.3- 70.0- 5.9-
2024-04-16 06:42 pm--------- 72.3- 69.6- 5.9-
2024-04-16 06:36 pm--------- 72.3- 69.6- 5.9-
2024-04-16 06:30 pm--------- 72.3- 69.4- 5.9-
2024-04-16 06:24 pm--------- 72.5- 69.4- 5.9-
2024-04-16 06:18 pm--------- 72.5- 69.3- 5.9-
2024-04-16 06:00 pm--------- 72.9- 69.3- 5.9-
2024-04-16 05:54 pm--------- 73.0- 68.9- 5.9-